Location: Cicognara
(44.9500°N, 10.4667°E)
Time: 23:35:55
(UTC+00:00)

Cosmos 1603 - Pass Details

Date: 20 June 2021
Orbit: 832 x 858 km, 71.0° (Epoch: 23 July)

Event Time Altitude Azimuth Distance (km) Brightness Sun altitude
Exits shadow 23:45:53 39° 155° (SSE) 1,240 4.1 -21.4°
Maximum altitude 23:47:28 51° 109° (ESE) 1,055 4.1 -21.3°
Drops below altitude 10° 23:52:56 10° 35° (NE) 2,467 7.0 -21.2°
Sets 23:55:25 0° 30° (NNE) 3,402 8.1 -21.1°
